Temp
70 68 68 68 68 67 68 68 68 68 67 67 64 65 64 62 58 56 57 54 59 63 66 69 66 66 68 68 68 69 69 72 75 72 72 70 69 71 71 71 71 71 71 71 70 71 71 71 71 72 73 72 72 73 73 72 72 72 72 72 72 72 72 71 71 71 71 71 71 71 71 71 72 73
69 70 68 69 67 69 68 68 69 68 67 66 66 64 64 63 62 57 58 56 57 60 61 67 67 65 67 68 69 69 68 72 75 70 70 70 69 70 71 71 71 71 70 70 69 70 70 70 70 70 70 70 71 72 72 72 71 72 71 72 72 72 71 70 70 71 71 71 71 70 71 71 71 71
70 69 68 67 67 68 68 69 68 68 67 66 65 65 65 65 63 61 58 57 58 63 63 62 66 68 66 68 68 69 69 72 74 71 69 69 71 72 71 71 70 70 70 69 68 68 68 68 69 69 69 69 70 70 71 71 71 71 71 71 72 71 71 70 70 70 71 71 71 70 70 70 70 71
70 69 68 68 68 67 67 68 67 67 68 67 66 66 66 65 64 63 61 60 61 62 63 63 65 67 68 67 68 66 68 70 74 69 69 70 73 71 70 72 70 69 69 69 69 68 67 67 68 68 69 69 70 71 70 70 70 70 70 70 71 71 71 69 69 70 70 70 70 70 70 70 70 70
70 69 69 68 68 67 67 67 67 67 67 67 68 67 65 65 64 64 62 61 62 62 62 65 66 66 68 67 67 67 67 69 69 71 68 68 68 69 68 69 71 70 69 68 68 67 67 67 67 68 68 69 70 70 71 70 69 69 68 68 68 69 69 68 68 69 69 69 70 70 70 70 70 70
71 70 69 69 68 66 67 67 67 67 66 67 66 65 66 64 65 65 65 62 61 62 62 64 64 65 66 68 64 67 69 69 69 69 70 70 68 69 69 68 68 70 69 67 66 66 66 66 66 66 67 68 68 68 68 68 67 68 67 67 67 67 66 66 67 68 68 69 69 69 69 69 69 70
69 69 69 69 68 68 66 66 68 67 67 67 67 66 65 66 65 65 66 64 62 62 63 63 63 64 66 66 68 68 68 68 68 67 69 70 70 70 69 68 69 71 70 68 67 67 67 66 66 66 67 67 66 66 65 65 65 65 65 65 66 66 65 65 66 67 67 68 68 69 69 69 69 69
69 69 68 68 68 67 67 66 66 66 67 66 66 65 65 66 66 66 66 66 65 63 63 62 64 65 65 65 66 67 68 67 68 68 69 68 68 68 69 69 68 69 69 68 67 67 66 66 66 65 65 64 64 63 62 63 63 63 63 63 64 64 64 63 64 65 65 65 67 67 68 68 68 67
69 69 69 68 68 67 67 66 66 66 65 66 65 66 65 66 67 68 67 65 65 64 62 62 62 64 64 65 65 65 66 67 66 66 66 67 67 67 68 69 70 70 68 68 67 67 66 66 66 65 65 65 64 63 62 62 62 62 62 62 63 63 63 63 63 63 63 64 64 64 64 65 66 66
69 69 69 69 68 68 67 67 67 66 66 66 66 66 67 67 68 68 67 66 64 64 63 63 64 61 64 64 64 65 65 65 65 65 65 65 65 65 66 68 69 69 69 68 69 68 67 67 66 65 65 65 64 64 63 63 62 61 61 59 59 60 61 62 62 62 62 62 63 64 64 64 64 65
70 70 69 69 68 68 68 69 68 67 67 68 68 69 69 69 68 67 66 66 65 64 64 63 63 62 62 64 63 63 64 65 64 64 63 63 63 64 64 65 67 67 68 68 69 68 68 68 67 64 63 64 64 64 64 63 62 62 61 59 57 58 58 58 59 60 60 61 61 61 60 61 63 64
71 70 70 70 69 69 69 70 69 69 69 69 69 69 69 69 68 66 65 64 64 63 63 62 62 61 61 61 62 62 62 61 61 63 63 61 61 63 61 62 64 64 64 66 67 68 68 67 66 64 64 65 65 64 64 65 66 65 63 61 61 61 59 58 59 59 59 58 58 58 59 59 60 61
71 70 71 71 70 71 73 73 73 72 72 69 68 68 67 67 66 66 64 64 63 62 62 62 62 60 60 61 61 60 59 59 62 61 59 61 61 61 62 62 63 65 65 64 65 65 66 65 65 64 64 65 67 67 67 67 68 67 63 62 62 62 62 60 60 60 59 59 59 58 58 59 60 61
70 71 71 72 74 74 76 74 73 72 73 73 72 70 67 67 66 65 64 63 63 63 61 62 62 61 60 61 61 60 60 61 59 60 59 59 59 59 61 62 62 63 63 62 63 63 64 63 62 62 63 65 66 65 65 66 67 67 65 64 63 63 63 62 61 61 60 59 59 58 57 58 59 60
70 70 70 69 73 75 75 75 75 74 74 74 73 72 72 71 68 66 64 64 63 63 63 63 62 61 61 62 61 60 62 61 63 62 60 61 59 60 58 59 63 63 63 59 57 61 62 63 61 62 62 64 64 65 65 67 67 65 64 64 63 63 63 63 63 62 61 60 59 58 58 58 58 59
70 70 70 69 71 73 74 74 74 75 74 72 72 71 70 70 69 70 68 67 63 62 63 61 62 62 62 62 61 60 60 62 61 61 60 59 59 59 58 57 58 60 62 60 59 59 62 61 61 60 62 63 64 65 65 65 65 64 63 63 63 63 63 62 63 63 62 62 61 62 61 61 60 60
70 69 69 70 71 72 76 74 72 70 70 71 71 70 70 69 68 66 66 67 69 65 63 63 63 63 62 61 62 63 62 61 62 59 58 59 59 59 58 58 58 63 63 59 57 57 61 60 61 60 62 63 63 65 66 65 64 64 63 63 63 62 62 62 62 62 62 61 61 61 60 59 59 59
70 69 69 69 70 68 70 71 71 70 68 68 67 67 67 67 69 66 63 62 63 64 64 63 63 65 63 63 63 65 64 61 61 59 59 60 58 58 59 61 60 62 62 60 57 55 59 61 60 58 61 62 62 63 63 63 63 63 62 62 62 61 61 61 61 61 61 61 61 60 59 58 58 58
69 69 70 69 68 68 69 70 71 70 68 66 67 66 65 66 66 67 67 64 63 63 64 64 65 65 65 65 65 65 63 64 64 63 62 62 60 59 57 58 59 60 61 59 57 53 57 58 57 59 60 61 60 61 61 61 62 62 61 61 61 61 61 61 61 60 60 60 59 58 58 57 57 56
69 70 69 68 68 68 69 70 69 72 68 66 65 65 65 66 67 67 69 64 65 66 65 65 65 65 67 65 66 65 64 62 62 64 61 59 58 57 55 55 58 58 59 59 56 54 55 57 57 55 57 58 59 60 60 61 61 61 61 61 61 60 59 59 60 60 60 59 59 58 57 56 55 55
69 69 69 69 69 69 69 68 63 65 72 65 65 65 65 66 66 66 67 62 62 63 62 62 62 62 61 59 58 57 58 62 62 59 58 58 57 55 53 56 55 57 58 57 59 56 55 54 55 57 57 58 58 59 59 59 60 61 60 60 60 59 59 59 59 59 59 59 59 59 59 57 56 57
68 70 74 72 69 69 69 64 62 62 68 65 65 65 65 65 65 65 66 67 63 60 61 60 60 60 59 59 58 58 57 56 59 60 57 58 58 57 56 54 55 56 58 58 59 56 54 55 53 54 55 56 55 56 57 59 61 62 58 58 59 59 59 59 58 58 58 59 59 58 58 56 56 59
67 68 73 73 70 69 67 62 61 61 66 66 66 66 65 65 64 64 63 64 63 61 63 62 63 63 62 62 61 63 61 59 60 60 60 60 57 54 55 55 54 54 54 57 60 57 53 55 54 54 53 52 54 56 58 59 59 59 60 61 62 61 61 60 58 57 57 57 58 58 57 56 56 59
65 66 68 69 64 63 62 59 58 58 60 66 66 66 65 64 64 63 61 62 61 61 61 60 61 60 60 59 60 60 60 63 63 60 60 59 58 55 54 55 55 54 53 52 58 56 52 54 53 52 55 51 48 52 57 57 58 60 60 60 60 62 63 62 60 58 57 57 57 57 56 55 56 59
65 65 67 68 63 59 58 57 56 55 56 62 66 64 64 65 62 59 60 61 67 61 61 60 59 60 58 58 58 59 59 61 61 61 60 59 58 57 56 54 54 54 56 59 62 56 52 50 53 51 52 51 51 53 55 57 59 59 61 61 60 62 62 62 61 63 60 58 56 55 55 55 55 57
65 67 68 67 64 58 56 55 54 53 54 58 62 60 56 55 55 59 60 59 58 58 57 56 57 58 56 56 58 59 59 60 61 59 59 59 58 58 58 56 55 51 53 57 59 55 53 52 54 54 53 50 53 54 53 55 58 60 60 60 61 61 62 62 62 62 62 63 63 60 61 59 58 57
67 66 67 67 63 57 53 52 52 51 53 59 61 55 51 53 56 59 56 57 56 55 56 56 57 55 56 57 56 57 57 57 57 58 57 57 57 58 59 58 57 57 58 59 60 58 56 51 54 54 53 53 51 52 52 51 54 59 59 60 61 61 62 61 61 62 62 62 62 59 57 56 56 57
68 65 65 64 57 52 49 49 50 51 55 59 54 50 52 54 57 56 55 55 54 57 55 55 55 55 55 55 56 56 59 57 55 57 57 57 56 56 57 57 59 59 58 58 59 58 56 55 55 55 54 51 49 48 48 55 57 57 57 60 61 62 62 62 61 62 62 62 61 61 60 60 61 61
66 62 57 54 50 50 48 49 51 52 54 53 50 50 53 58 54 54 53 54 53 53 54 54 56 55 57 56 57 57 54 56 57 57 59 58 57 56 55 56 57 58 60 61 59 58 57 54 54 55 54 52 50 52 52 52 55 57 59 59 57 60 61 62 61 60 60 60 60 60 59 60 60 62
56 53 51 50 50 50 51 54 56 58 57 53 53 52 55 55 54 53 52 52 54 53 53 54 55 55 55 55 56 55 56 55 55 56 56 55 56 56 55 55 55 55 56 57 58 57 56 56 55 54 53 54 54 53 54 54 54 57 58 57 58 61 61 59 59 59 59 59 60 60 61 61 61 61
55 53 55 55 54 54 55 57 59 59 57 53 53 53 54 54 54 54 54 53 54 55 54 54 55 54 55 55 56 55 55 56 57 54 56 55 54 56 53 52 53 54 56 55 57 58 56 56 56 54 52 53 55 55 56 56 54 55 56 57 57 53 58 60 60 60 60 60 60 60 60 61 61 62
57 57 55 54 56 56 56 57 56 56 56 55 54 53 53 54 55 56 58 59 54 54 54 53 54 55 54 54 55 54 54 53 54 54 54 54 55 54 52 50 52 52 53 55 55 56 61 58 56 55 55 54 53 55 56 55 54 55 55 58 59 59 60 59 59 59 60 59 58 58 59 60 60 60
59 57 57 57 56 56 56 55 55 54 56 55 54 54 53 53 52 53 53 54 53 54 54 54 54 54 54 53 54 55 53 54 53 52 53 53 51 54 51 51 52 50 51 53 55 55 55 54 56 56 55 55 55 55 53 51 54 56 56 57 58 57 58 59 59 59 59 58 57 57 57 59 60 60
58 58 57 57 57 56 55 55 55 55 54 56 55 55 55 54 53 53 53 53 53 54 55 55 54 54 53 52 52 52 52 53 53 52 54 51 51 51 49 49 49 51 52 51 52 54 55 55 55 55 56 56 57 55 54 53 53 56 57 57 56 56 58 58 59 58 58 56 56 54 55 56 58 59
59 59 59 58 57 57 56 56 56 56 56 55 55 55 54 55 55 55 54 54 54 55 55 55 54 54 52 52 52 51 52 54 52 50 51 51 51 51 50 48 49 50 50 51 52 53 54 53 53 52 53 53 54 54 57 57 54 55 56 56 56 56 57 58 58 58 57 57 56 52 52 54 54 56
59 61 59 57 57 57 57 57 57 57 56 56 56 56 56 55 55 55 55 54 54 54 53 53 53 52 51 50 51 52 51 52 50 49 50 50 49 50 50 50 51 51 49 50 52 53 52 52 51 49 49 49 48 49 53 62 60 54 53 53 56 56 57 57 58 57 56 54 54 51 49 49 52 54
61 60 59 57 58 58 57 58 57 58 57 57 55 54 55 55 54 54 54 53 55 55 55 53 53 53 53 52 52 52 51 50 50 50 50 48 48 48 48 49 50 50 50 51 51 52 51 49 50 48 47 47 47 47 51 56 59 59 54 53 54 56 56 56 55 54 55 53 52 51 50 50 50 52
59 58 57 57 57 56 57 57 57 56 55 55 55 55 54 53 54 54 53 54 54 54 53 53 54 52 51 52 51 49 48 49 49 48 49 48 47 47 47 47 48 49 50 51 51 51 50 48 49 49 46 46 46 47 48 54 54 56 57 54 53 55 56 54 53 51 52 53 51 53 53 50 50 52
58 57 57 57 56 57 57 56 57 56 55 55 56 55 56 55 54 54 55 55 55 54 53 53 53 52 52 50 49 50 49 48 47 47 48 48 48 47 49 48 48 50 48 49 50 50 49 49 50 50 48 46 47 49 51 48 50 55 56 54 54 54 54 53 51 51 50 50 51 53 53 54 55 57
57 57 57 57 56 56 56 56 56 56 55 55 55 54 55 55 54 55 53 53 53 55 54 54 54 51 49 48 49 48 47 49 48 46 48 48 49 49 48 49 48 48 47 48 49 50 50 51 52 52 52 52 53 55 54 52 52 54 54 55 52 53 54 53 51 49 49 50 50 48 48 50 49 51
56 56 56 57 56 56 56 55 55 55 54 54 55 55 54 52 52 53 51 51 52 49 50 50 49 48 49 49 48 48 48 48 47 49 50 48 50 50 51 51 48 48 47 48 48 49 51 53 57 59 59 55 55 54 52 50 51 53 54 56 54 53 53 53 51 49 48 50 49 47 46 46 46 47
56 55 55 56 56 54 55 54 53 53 54 52 53 53 53 52 52 56 53 54 49 50 48 48 47 49 49 47 48 48 48 48 48 48 49 48 46 47 49 48 46 48 46 47 48 50 53 54 56 55 54 53 52 49 49 50 49 51 53 54 56 55 54 54 53 53 52 50 48 46 45 46 46 45
57 56 56 55 56 55 54 54 52 53 52 51 52 52 50 50 50 49 47 48 49 49 49 49 47 47 47 47 46 47 48 48 48 47 47 47 47 46 46 47 47 48 48 48 50 51 52 53 53 53 52 50 50 52 49 50 51 51 51 52 53 54 55 55 54 54 54 54 53 50 48 46 43 41
55 56 55 55 56 54 54 52 52 51 53 53 50 49 50 49 50 47 47 47 47 47 48 46 46 46 47 48 48 47 47 48 47 47 47 47 47 46 47 48 49 49 48 48 49 51 52 53 53 51 49 49 49 50 50 50 50 51 52 52 53 52 50 52 53 54 54 54 54 53 53 52 51 51
56 57 56 54 54 53 53 53 52 51 50 50 50 50 50 50 49 48 48 48 48 48 49 47 46 47 47 48 47 47 47 51 48 47 47 47 47 47 48 48 48 48 48 48 47 49 51 50 51 50 48 50 50 50 52 52 51 52 52 52 51 50 49 49 49 49 49 49 51 52 52 52 52 51
MSLP
1017.48 1017.68 1017.80 1017.92 1017.88 1017.80 1017.76 1017.76 1017.92 1018.00 1018.08 1018.12 1018.32 1018.48 1019.00 1019.48 1020.32 1020.80 1020.80 1020.56 1020.28 1019.72 1019.32 1019.60 1018.80 1018.32 1018.32 1018.36 1018.40 1018.52 1018.52 1018.40 1018.32 1018.40 1018.44 1018.48 1018.48 1018.44 1018.48 1018.48 1018.56 1018.60 1018.64 1018.68 1018.68 1018.76 1018.76 1018.80 1018.80 1018.76 1018.68 1018.64 1018.60 1018.56 1018.56 1018.56 1018.60 1018.60 1018.56 1018.56 1018.56 1018.56 1018.56 1018.60 1018.60 1018.64 1018.72 1018.76 1018.80 1018.80 1018.80 1018.72 1018.64 1018.56
1017.28 1017.40 1017.64 1017.72 1017.76 1017.64 1017.72 1017.76 1017.80 1017.88 1017.92 1018.12 1018.28 1018.48 1018.68 1019.00 1019.72 1020.12 1020.56 1020.40 1020.04 1019.76 1019.28 1019.08 1019.20 1018.60 1018.52 1018.40 1018.40 1018.40 1018.44 1018.32 1018.28 1018.32 1018.36 1018.36 1018.32 1018.24 1018.24 1018.28 1018.32 1018.32 1018.36 1018.36 1018.40 1018.44 1018.48 1018.48 1018.48 1018.48 1018.48 1018.44 1018.40 1018.32 1018.32 1018.32 1018.32 1018.28 1018.28 1018.28 1018.28 1018.28 1018.32 1018.36 1018.36 1018.40 1018.40 1018.44 1018.48 1018.52 1018.52 1018.52 1018.48 1018.44
1017.16 1017.36 1017.52 1017.56 1017.56 1017.52 1017.60 1017.68 1017.76 1017.84 1017.96 1018.00 1018.20 1018.44 1018.68 1018.92 1019.16 1019.68 1020.04 1020.68 1019.80 1019.52 1019.60 1019.16 1018.80 1018.80 1018.56 1018.44 1018.44 1018.36 1018.32 1018.24 1018.16 1018.24 1018.28 1018.24 1018.12 1018.08 1018.08 1018.08 1018.08 1018.08 1018.08 1018.08 1018.12 1018.16 1018.20 1018.20 1018.20 1018.20 1018.16 1018.16 1018.12 1018.08 1018.08 1018.08 1018.04 1018.00 1017.96 1017.96 1017.96 1018.00 1018.00 1018.04 1018.12 1018.16 1018.16 1018.16 1018.16 1018.20 1018.20 1018.24 1018.24 1018.20
1016.96 1017.16 1017.32 1017.36 1017.40 1017.44 1017.56 1017.68 1017.80 1017.88 1017.88 1017.92 1018.12 1018.32 1018.56 1018.80 1019.04 1019.28 1019.76 1020.24 1020.00 1019.36 1019.24 1019.08 1018.80 1018.60 1018.60 1018.36 1018.48 1018.40 1018.28 1018.12 1018.08 1018.12 1018.08 1018.00 1017.96 1018.04 1018.04 1017.96 1017.96 1017.96 1017.92 1017.88 1017.88 1017.88 1017.92 1017.92 1017.92 1017.88 1017.88 1017.84 1017.80 1017.76 1017.76 1017.76 1017.76 1017.76 1017.76 1017.72 1017.72 1017.68 1017.68 1017.72 1017.76 1017.84 1017.88 1017.92 1017.96 1018.00 1018.00 1018.00 1017.96 1017.92
1016.68 1016.88 1017.04 1017.16 1017.12 1017.20 1017.52 1017.64 1017.76 1017.84 1017.88 1017.96 1018.08 1018.20 1018.40 1018.72 1019.00 1019.28 1019.68 1020.04 1020.00 1019.40 1018.88 1018.88 1018.76 1018.40 1018.40 1018.48 1018.16 1018.32 1018.24 1018.12 1018.00 1017.92 1017.92 1017.84 1017.88 1017.84 1017.84 1017.76 1017.68 1017.68 1017.68 1017.68 1017.64 1017.64 1017.64 1017.64 1017.64 1017.60 1017.56 1017.52 1017.48 1017.44 1017.40 1017.40 1017.36 1017.40 1017.44 1017.48 1017.48 1017.48 1017.48 1017.44 1017.48 1017.52 1017.56 1017.60 1017.64 1017.68 1017.68 1017.68 1017.68 1017.68
1016.48 1016.68 1017.00 1017.08 1017.08 1017.20 1017.40 1017.56 1017.76 1017.76 1017.92 1018.04 1018.20 1018.28 1018.36 1018.56 1018.84 1018.92 1019.32 1019.68 1019.88 1019.76 1019.00 1018.84 1018.48 1018.44 1018.16 1018.64 1018.00 1018.28 1018.28 1018.20 1018.00 1018.00 1017.84 1017.68 1017.60 1017.60 1017.52 1017.56 1017.48 1017.40 1017.44 1017.48 1017.52 1017.48 1017.44 1017.36 1017.32 1017.28 1017.24 1017.16 1017.16 1017.12 1017.12 1017.12 1017.12 1017.16 1017.16 1017.16 1017.20 1017.24 1017.24 1017.24 1017.24 1017.20 1017.24 1017.32 1017.36 1017.36 1017.36 1017.36 1017.36 1017.32
1016.40 1016.72 1016.92 1017.00 1017.04 1017.20 1017.48 1017.56 1017.60 1017.68 1017.76 1017.80 1017.92 1018.08 1018.24 1018.40 1018.48 1018.68 1018.84 1019.24 1019.68 1019.68 1019.32 1018.80 1018.84 1018.52 1018.32 1018.48 1018.28 1018.04 1018.04 1018.04 1018.04 1018.12 1017.92 1017.68 1017.48 1017.32 1017.24 1017.28 1017.16 1017.04 1017.00 1016.96 1016.96 1016.92 1016.88 1016.88 1016.92 1016.84 1016.76 1016.76 1016.76 1016.80 1016.80 1016.84 1016.88 1016.88 1016.88 1016.88 1016.92 1016.92 1016.96 1016.96 1016.96 1016.96 1016.96 1016.96 1017.00 1017.00 1017.00 1017.00 1016.96 1016.96
1016.40 1016.60 1016.88 1016.92 1016.96 1017.16 1017.44 1017.56 1017.60 1017.64 1017.64 1017.76 1017.88 1018.04 1018.16 1018.24 1018.32 1018.44 1018.64 1018.72 1019.00 1019.16 1019.44 1018.88 1018.76 1018.40 1018.48 1018.28 1018.04 1018.00 1017.96 1018.08 1018.04 1017.96 1017.72 1017.52 1017.44 1017.20 1016.96 1016.92 1016.92 1016.76 1016.68 1016.64 1016.56 1016.48 1016.44 1016.40 1016.36 1016.44 1016.56 1016.60 1016.56 1016.52 1016.52 1016.56 1016.56 1016.52 1016.56 1016.56 1016.60 1016.60 1016.64 1016.68 1016.68 1016.68 1016.68 1016.64 1016.64 1016.64 1016.64 1016.64 1016.64 1016.64
1016.24 1016.44 1016.56 1016.68 1016.84 1017.04 1017.36 1017.52 1017.64 1017.60 1017.72 1017.76 1017.88 1018.04 1018.08 1018.12 1018.08 1018.20 1018.32 1018.48 1018.64 1018.92 1019.12 1018.92 1018.48 1018.36 1018.28 1018.08 1018.04 1017.96 1018.20 1018.04 1018.00 1017.92 1017.88 1017.64 1017.48 1017.24 1016.92 1016.76 1016.60 1016.52 1016.48 1016.44 1016.36 1016.28 1016.16 1016.04 1016.00 1015.92 1015.92 1015.92 1016.00 1016.12 1016.20 1016.24 1016.20 1016.20 1016.24 1016.24 1016.28 1016.32 1016.36 1016.36 1016.40 1016.40 1016.40 1016.36 1016.32 1016.32 1016.28 1016.24 1016.28 1016.28
1015.88 1016.12 1016.32 1016.44 1016.60 1016.84 1017.20 1017.40 1017.48 1017.52 1017.56 1017.64 1017.76 1017.84 1017.88 1017.92 1017.88 1017.96 1018.00 1018.12 1018.40 1018.60 1018.64 1018.68 1018.60 1018.40 1018.36 1018.24 1018.12 1017.92 1018.00 1018.24 1018.28 1018.08 1017.84 1017.68 1017.48 1017.44 1017.24 1016.88 1016.60 1016.48 1016.40 1016.40 1016.28 1016.16 1016.04 1015.92 1015.84 1015.76 1015.72 1015.68 1015.64 1015.60 1015.60 1015.68 1015.80 1015.92 1015.92 1015.96 1016.00 1016.04 1016.08 1016.12 1016.12 1016.12 1016.08 1016.04 1015.96 1015.92 1015.88 1015.92 1015.96 1016.00
1015.56 1015.76 1016.00 1016.20 1016.36 1016.60 1016.80 1017.04 1017.16 1017.24 1017.32 1017.40 1017.48 1017.48 1017.60 1017.60 1017.76 1017.80 1017.84 1017.96 1018.16 1018.36 1018.44 1018.44 1018.44 1018.44 1018.28 1018.28 1018.36 1017.92 1017.88 1017.96 1018.08 1018.28 1018.20 1018.08 1017.56 1017.44 1017.40 1017.28 1016.76 1016.52 1016.36 1016.08 1015.96 1015.92 1015.84 1015.80 1015.76 1015.68 1015.68 1015.68 1015.64 1015.60 1015.56 1015.48 1015.44 1015.36 1015.44 1015.52 1015.64 1015.68 1015.76 1015.80 1015.80 1015.76 1015.72 1015.64 1015.56 1015.52 1015.48 1015.48 1015.44 1015.44
1015.28 1015.44 1015.60 1015.80 1015.96 1016.12 1016.24 1016.44 1016.64 1016.76 1017.00 1017.12 1017.28 1017.16 1017.28 1017.40 1017.64 1017.76 1017.76 1017.92 1018.08 1018.24 1018.32 1018.36 1018.28 1018.24 1018.24 1018.20 1018.04 1017.92 1018.04 1018.16 1018.08 1018.00 1018.12 1018.20 1017.80 1017.56 1017.32 1017.16 1017.08 1016.68 1016.52 1016.44 1016.16 1015.88 1015.76 1015.68 1015.60 1015.60 1015.60 1015.52 1015.44 1015.40 1015.36 1015.28 1015.16 1015.00 1014.92 1014.88 1014.96 1015.08 1015.16 1015.20 1015.20 1015.20 1015.16 1015.16 1015.16 1015.12 1015.08 1015.04 1015.00 1015.00
1015.08 1015.16 1015.24 1015.36 1015.52 1015.60 1015.68 1015.80 1016.00 1016.20 1016.32 1016.72 1017.04 1016.96 1017.04 1017.24 1017.48 1017.60 1017.68 1017.76 1017.96 1018.08 1018.20 1018.20 1018.20 1018.24 1018.24 1018.16 1018.16 1018.16 1018.12 1018.16 1018.04 1017.68 1017.80 1017.80 1017.56 1017.40 1017.36 1017.00 1016.72 1016.64 1016.60 1016.40 1016.28 1016.16 1015.88 1015.88 1015.72 1015.64 1015.56 1015.36 1015.20 1015.16 1015.08 1014.96 1014.84 1014.76 1014.72 1014.68 1014.64 1014.56 1014.52 1014.52 1014.56 1014.64 1014.68 1014.68 1014.68 1014.68 1014.68 1014.68 1014.68 1014.68
1014.84 1014.84 1014.92 1014.96 1015.08 1015.20 1015.28 1015.44 1015.64 1015.80 1015.88 1015.92 1016.08 1016.32 1016.64 1016.88 1017.20 1017.40 1017.56 1017.76 1017.80 1017.92 1018.16 1018.12 1018.04 1018.24 1018.16 1017.96 1017.96 1018.00 1017.72 1017.56 1017.56 1017.64 1017.64 1017.68 1017.32 1017.28 1017.12 1016.80 1016.44 1016.24 1016.32 1016.40 1016.36 1016.08 1015.80 1015.92 1015.92 1015.84 1015.76 1015.40 1015.28 1015.16 1015.04 1014.88 1014.68 1014.56 1014.48 1014.48 1014.44 1014.40 1014.36 1014.28 1014.20 1014.20 1014.20 1014.28 1014.32 1014.32 1014.32 1014.32 1014.32 1014.28
1014.60 1014.68 1014.64 1014.68 1014.76 1014.88 1014.96 1015.04 1015.20 1015.40 1015.52 1015.56 1015.64 1015.72 1015.88 1016.12 1016.52 1017.04 1017.40 1017.44 1017.48 1017.72 1017.80 1017.72 1017.92 1018.04 1018.00 1017.76 1017.68 1017.68 1017.52 1017.44 1017.32 1017.32 1017.28 1017.32 1017.36 1017.44 1017.56 1017.48 1016.40 1016.00 1016.08 1016.28 1016.36 1016.16 1015.72 1015.80 1016.00 1015.80 1015.60 1015.36 1015.20 1015.04 1014.88 1014.64 1014.48 1014.44 1014.36 1014.32 1014.24 1014.24 1014.20 1014.16 1014.12 1014.04 1013.96 1013.92 1013.92 1013.92 1013.96 1013.96 1013.92 1013.88
1014.16 1014.36 1014.48 1014.48 1014.48 1014.52 1014.52 1014.68 1014.92 1015.12 1015.24 1015.36 1015.48 1015.60 1015.76 1015.88 1016.00 1016.08 1016.48 1016.88 1017.32 1017.40 1017.48 1017.68 1017.68 1017.76 1017.76 1017.56 1017.44 1017.44 1017.40 1017.16 1017.08 1017.00 1017.08 1017.16 1017.28 1017.36 1017.44 1017.32 1017.24 1016.20 1016.04 1016.36 1016.48 1016.28 1015.68 1015.60 1015.72 1015.68 1015.36 1015.12 1014.96 1014.76 1014.56 1014.44 1014.40 1014.36 1014.32 1014.24 1014.16 1014.08 1014.04 1013.96 1013.88 1013.80 1013.76 1013.68 1013.56 1013.48 1013.40 1013.36 1013.32 1013.28
1013.64 1013.88 1014.12 1014.28 1014.28 1014.24 1014.24 1014.48 1014.72 1014.96 1015.16 1015.24 1015.32 1015.40 1015.52 1015.64 1015.72 1015.80 1015.80 1015.88 1016.08 1016.48 1017.00 1017.32 1017.40 1017.32 1017.36 1017.40 1017.12 1016.92 1016.80 1016.68 1016.92 1016.84 1017.00 1017.00 1017.08 1017.16 1017.20 1017.04 1016.72 1016.16 1015.92 1016.24 1016.40 1016.36 1015.72 1015.56 1015.52 1015.56 1015.08 1014.92 1014.76 1014.60 1014.44 1014.36 1014.32 1014.24 1014.12 1014.04 1013.92 1013.80 1013.72 1013.64 1013.60 1013.52 1013.44 1013.32 1013.20 1013.12 1013.04 1012.96 1012.92 1012.88
1013.36 1013.60 1013.84 1014.12 1014.24 1014.24 1014.28 1014.36 1014.56 1014.76 1015.00 1015.16 1015.24 1015.32 1015.40 1015.52 1015.48 1015.48 1015.56 1015.72 1016.20 1016.56 1017.12 1017.36 1017.20 1016.68 1016.80 1016.88 1016.56 1016.28 1016.32 1016.64 1016.72 1016.76 1016.84 1016.76 1016.96 1017.04 1016.88 1016.44 1016.36 1016.00 1015.92 1016.32 1016.44 1016.44 1015.84 1015.40 1015.44 1015.40 1014.96 1014.72 1014.64 1014.52 1014.36 1014.24 1014.12 1014.00 1013.88 1013.76 1013.64 1013.56 1013.48 1013.40 1013.28 1013.16 1013.04 1012.92 1012.80 1012.72 1012.64 1012.60 1012.52 1012.44
1013.08 1013.36 1013.52 1013.72 1013.96 1014.08 1014.16 1014.16 1014.28 1014.52 1014.76 1014.96 1015.20 1015.32 1015.44 1015.48 1015.52 1015.40 1015.48 1016.00 1016.64 1016.80 1016.80 1016.64 1016.68 1016.48 1016.40 1016.32 1016.16 1016.04 1016.12 1016.20 1016.12 1016.16 1016.32 1016.36 1016.44 1016.48 1016.40 1016.36 1016.20 1016.04 1015.80 1016.00 1016.44 1016.56 1015.76 1015.32 1015.32 1015.12 1014.84 1014.64 1014.56 1014.40 1014.20 1014.08 1013.96 1013.80 1013.64 1013.48 1013.40 1013.32 1013.20 1013.08 1012.92 1012.80 1012.68 1012.56 1012.44 1012.36 1012.28 1012.16 1012.08 1011.96
1012.80 1012.96 1013.24 1013.52 1013.72 1013.80 1013.88 1013.92 1014.00 1014.16 1014.48 1014.88 1015.20 1015.56 1015.72 1015.68 1015.44 1015.40 1015.32 1015.80 1015.92 1016.00 1016.12 1016.16 1016.24 1016.28 1016.04 1015.84 1015.84 1015.80 1015.88 1015.92 1015.88 1015.96 1016.08 1016.20 1016.32 1016.48 1016.64 1016.60 1016.20 1016.12 1015.68 1015.80 1016.12 1016.12 1015.68 1015.20 1015.20 1014.92 1014.64 1014.56 1014.48 1014.16 1014.00 1013.80 1013.68 1013.48 1013.28 1013.20 1013.12 1012.96 1012.80 1012.64 1012.48 1012.36 1012.24 1012.12 1012.00 1011.88 1011.76 1011.68 1011.56 1011.44
1012.56 1012.72 1012.88 1013.12 1013.32 1013.48 1013.64 1013.64 1013.84 1014.00 1014.24 1014.80 1015.16 1015.40 1015.44 1015.40 1015.48 1015.36 1015.28 1015.36 1015.20 1015.24 1015.64 1016.04 1016.08 1015.92 1015.80 1015.72 1015.72 1015.72 1015.68 1015.72 1015.76 1016.00 1016.24 1016.36 1016.28 1016.56 1016.68 1016.44 1016.36 1016.04 1015.76 1015.64 1015.56 1015.64 1015.56 1015.16 1015.04 1014.88 1014.60 1014.44 1014.20 1013.96 1013.76 1013.56 1013.28 1013.04 1012.92 1012.84 1012.72 1012.52 1012.36 1012.20 1012.04 1011.92 1011.76 1011.60 1011.48 1011.36 1011.28 1011.16 1011.04 1010.88
1012.36 1012.44 1012.52 1012.72 1012.96 1013.20 1013.32 1013.36 1013.60 1013.80 1014.12 1014.60 1014.84 1015.12 1015.32 1015.40 1015.40 1015.12 1014.88 1014.92 1015.04 1015.36 1015.56 1015.68 1015.52 1015.44 1015.36 1015.40 1015.48 1015.52 1015.56 1015.60 1015.76 1015.96 1016.36 1016.04 1016.12 1016.44 1016.52 1016.60 1016.28 1016.00 1015.76 1015.48 1015.28 1015.44 1015.24 1015.00 1014.92 1014.72 1014.32 1014.12 1013.88 1013.64 1013.48 1013.20 1012.88 1012.68 1012.60 1012.48 1012.28 1012.08 1011.88 1011.72 1011.60 1011.44 1011.32 1011.16 1011.00 1010.92 1010.76 1010.68 1010.56 1010.44
1012.20 1012.32 1012.32 1012.44 1012.64 1012.80 1012.92 1013.08 1013.28 1013.56 1013.88 1014.16 1014.40 1014.60 1014.96 1015.12 1015.08 1014.76 1014.64 1014.88 1014.96 1014.92 1015.04 1015.24 1015.28 1015.28 1015.28 1015.32 1015.40 1015.40 1015.40 1015.44 1015.64 1015.68 1015.72 1015.80 1016.12 1016.32 1016.32 1016.32 1016.28 1016.12 1015.64 1015.16 1015.00 1015.24 1014.96 1014.92 1014.68 1014.68 1014.40 1014.12 1013.56 1013.32 1013.08 1012.88 1012.68 1012.48 1012.28 1012.08 1011.84 1011.56 1011.44 1011.28 1011.16 1011.00 1010.84 1010.68 1010.56 1010.44 1010.32 1010.16 1010.12 1010.08
1012.20 1012.24 1012.28 1012.32 1012.40 1012.52 1012.60 1012.84 1013.08 1013.36 1013.56 1013.76 1013.96 1014.24 1014.64 1014.88 1014.76 1014.44 1014.76 1014.80 1014.72 1014.92 1015.20 1015.36 1015.40 1015.40 1015.32 1015.36 1015.36 1015.40 1015.40 1015.36 1015.32 1015.44 1015.52 1015.64 1015.84 1016.04 1016.12 1016.12 1016.20 1016.28 1015.76 1015.00 1014.80 1015.08 1014.88 1014.76 1014.60 1014.48 1014.52 1014.56 1013.92 1013.04 1012.84 1012.68 1012.48 1012.20 1012.00 1011.80 1011.64 1011.20 1010.96 1010.84 1010.72 1010.48 1010.36 1010.20 1010.04 1009.92 1009.80 1009.68 1009.68 1009.68
1012.04 1012.16 1012.20 1012.16 1012.16 1012.28 1012.44 1012.64 1012.84 1013.04 1013.32 1013.60 1013.84 1014.16 1014.56 1014.44 1014.24 1014.24 1014.52 1014.60 1014.76 1015.12 1015.32 1015.40 1015.36 1015.36 1015.36 1015.40 1015.40 1015.40 1015.36 1015.32 1015.24 1015.16 1015.24 1015.32 1015.48 1015.68 1015.84 1015.88 1015.88 1015.76 1015.40 1014.92 1014.68 1014.96 1014.92 1014.64 1014.52 1014.36 1014.16 1014.16 1013.76 1013.44 1012.68 1012.44 1012.08 1011.96 1011.64 1011.52 1011.36 1010.88 1010.68 1010.52 1010.36 1010.12 1009.84 1009.64 1009.52 1009.40 1009.24 1009.16 1009.08 1009.12
1011.76 1011.76 1011.84 1011.92 1011.96 1012.12 1012.28 1012.48 1012.68 1012.92 1013.36 1014.16 1014.92 1014.88 1014.60 1014.84 1014.84 1014.76 1014.68 1014.84 1015.08 1015.24 1015.32 1015.32 1015.36 1015.40 1015.48 1015.48 1015.44 1015.36 1015.28 1015.20 1015.16 1015.20 1015.28 1015.32 1015.36 1015.40 1015.36 1015.44 1015.52 1015.52 1015.20 1014.60 1014.56 1014.68 1014.76 1014.60 1014.32 1014.20 1014.00 1013.92 1013.32 1013.28 1012.96 1012.48 1011.92 1011.48 1011.24 1011.04 1010.92 1010.64 1010.44 1010.24 1010.04 1009.80 1009.52 1009.24 1009.00 1008.80 1008.60 1008.48 1008.44 1008.36
1011.48 1011.48 1011.56 1011.60 1011.72 1011.92 1012.12 1012.36 1012.64 1013.16 1014.00 1014.12 1013.84 1013.84 1014.44 1014.76 1014.88 1014.84 1014.92 1015.00 1015.04 1015.12 1015.28 1015.40 1015.44 1015.48 1015.52 1015.48 1015.36 1015.32 1015.24 1015.24 1015.28 1015.24 1015.24 1015.24 1015.24 1015.16 1015.08 1015.00 1014.96 1014.88 1014.56 1014.36 1014.20 1014.24 1014.44 1014.32 1013.88 1013.92 1013.80 1013.60 1013.56 1013.16 1013.00 1012.60 1011.68 1011.16 1010.96 1010.72 1010.44 1010.24 1010.04 1009.96 1009.80 1009.44 1009.12 1008.88 1008.56 1008.28 1008.12 1008.04 1007.92 1007.72
1011.16 1011.40 1011.48 1011.56 1011.72 1011.96 1012.20 1012.52 1012.92 1013.76 1013.76 1013.68 1013.72 1014.04 1014.36 1014.68 1014.84 1014.80 1014.76 1014.88 1015.04 1015.20 1015.32 1015.40 1015.44 1015.40 1015.36 1015.40 1015.40 1015.32 1015.24 1015.20 1015.16 1015.16 1015.08 1015.04 1014.96 1014.92 1014.80 1014.72 1014.60 1014.48 1014.32 1014.16 1013.96 1013.84 1013.88 1013.92 1013.68 1013.44 1013.48 1013.52 1013.44 1013.28 1012.72 1012.00 1011.64 1011.16 1010.80 1010.16 1010.04 1009.80 1009.60 1009.48 1009.28 1009.00 1008.68 1008.40 1008.16 1007.92 1007.84 1007.56 1007.28 1007.12
1011.04 1011.16 1011.32 1011.60 1011.84 1012.12 1012.44 1012.96 1013.24 1013.60 1013.56 1013.64 1013.84 1014.24 1014.48 1014.60 1014.68 1014.64 1014.76 1014.84 1015.08 1015.20 1015.24 1015.32 1015.36 1015.32 1015.20 1015.28 1015.32 1015.24 1015.16 1015.12 1015.12 1015.08 1014.96 1014.84 1014.76 1014.72 1014.68 1014.56 1014.44 1014.24 1014.04 1013.80 1013.68 1013.56 1013.52 1013.56 1013.44 1013.16 1013.12 1012.96 1013.04 1012.68 1012.60 1011.96 1011.48 1010.84 1010.48 1010.20 1009.92 1009.40 1009.16 1009.04 1008.92 1008.68 1008.36 1008.04 1007.84 1007.60 1007.40 1007.08 1006.76 1006.48
1011.04 1011.28 1011.52 1011.80 1012.08 1012.36 1012.72 1012.96 1012.88 1013.12 1013.60 1013.84 1014.00 1014.16 1014.36 1014.52 1014.60 1014.76 1014.80 1014.96 1015.08 1015.08 1015.12 1015.24 1015.20 1015.12 1015.24 1015.28 1015.24 1015.16 1015.12 1015.16 1015.00 1014.92 1014.92 1014.88 1014.76 1014.64 1014.56 1014.48 1014.20 1013.96 1013.80 1013.64 1013.52 1013.40 1013.32 1013.24 1013.08 1012.88 1012.84 1012.64 1012.48 1012.28 1011.92 1011.60 1011.04 1010.56 1010.20 1010.08 1009.60 1009.08 1008.92 1008.72 1008.60 1008.36 1008.12 1007.72 1007.32 1007.04 1006.64 1006.48 1006.12 1005.88
1011.56 1011.84 1011.92 1012.04 1012.24 1012.56 1013.00 1013.00 1013.00 1013.12 1013.48 1013.92 1014.28 1014.44 1014.56 1014.68 1014.80 1014.88 1014.76 1014.68 1014.76 1014.84 1015.00 1015.04 1015.16 1015.24 1015.24 1015.20 1015.20 1015.08 1015.04 1014.92 1014.80 1014.84 1014.88 1014.88 1014.72 1014.52 1014.48 1014.48 1014.20 1013.88 1013.52 1013.40 1013.32 1013.16 1013.00 1012.80 1012.64 1012.56 1012.60 1012.24 1011.96 1011.72 1011.24 1011.08 1010.80 1010.36 1009.92 1009.60 1009.44 1009.52 1008.48 1008.36 1008.20 1007.96 1007.68 1007.28 1006.76 1006.36 1006.08 1005.80 1005.44 1005.08
1011.72 1011.92 1012.32 1012.52 1012.72 1013.00 1013.16 1013.24 1013.32 1013.40 1013.64 1013.80 1014.04 1014.32 1014.48 1014.60 1014.68 1014.76 1014.76 1014.72 1014.76 1014.84 1014.96 1015.08 1015.12 1015.12 1015.12 1015.12 1014.96 1014.88 1014.84 1014.84 1014.80 1014.76 1014.84 1014.76 1014.56 1014.36 1014.36 1014.24 1013.96 1013.76 1013.56 1013.24 1013.04 1012.84 1012.64 1012.44 1012.28 1012.16 1012.12 1011.96 1011.80 1011.20 1010.92 1010.72 1010.52 1010.08 1009.64 1009.16 1008.84 1008.56 1008.28 1008.12 1007.80 1007.48 1007.24 1006.92 1006.36 1005.76 1005.36 1005.16 1004.72 1004.20
1011.76 1012.00 1012.20 1012.40 1012.64 1012.72 1012.84 1013.12 1013.28 1013.44 1013.56 1013.64 1013.84 1013.96 1014.20 1014.48 1014.60 1014.68 1014.68 1014.64 1014.68 1014.84 1014.92 1014.92 1014.96 1015.00 1015.04 1014.92 1014.76 1014.72 1014.80 1014.76 1014.68 1014.68 1014.68 1014.48 1014.40 1014.20 1014.16 1014.08 1014.00 1013.88 1013.68 1013.28 1012.88 1012.56 1012.36 1012.16 1011.96 1011.80 1011.64 1011.44 1011.24 1011.04 1010.96 1010.68 1009.96 1009.56 1009.28 1008.80 1008.56 1008.24 1007.92 1007.60 1007.44 1007.08 1006.84 1006.68 1006.12 1005.32 1004.56 1004.16 1004.00 1003.52
1011.48 1011.84 1012.12 1012.36 1012.48 1012.68 1012.92 1013.08 1013.16 1013.24 1013.36 1013.48 1013.64 1013.76 1013.96 1014.16 1014.28 1014.36 1014.44 1014.48 1014.52 1014.60 1014.64 1014.68 1014.76 1014.80 1014.80 1014.72 1014.60 1014.68 1014.68 1014.64 1014.56 1014.44 1014.48 1014.28 1014.32 1014.32 1014.12 1014.08 1013.88 1013.80 1013.68 1013.36 1013.00 1012.56 1012.16 1011.88 1011.68 1011.44 1011.20 1010.92 1010.64 1010.52 1010.40 1010.32 1009.80 1009.20 1008.76 1008.52 1008.36 1008.08 1007.48 1007.24 1006.96 1006.80 1006.60 1006.44 1006.04 1005.28 1004.40 1003.68 1003.12 1002.84
1011.28 1011.80 1012.12 1012.44 1012.60 1012.64 1012.80 1012.92 1013.04 1013.16 1013.36 1013.40 1013.48 1013.52 1013.64 1013.80 1013.88 1014.00 1014.04 1014.08 1014.20 1014.32 1014.40 1014.44 1014.48 1014.52 1014.52 1014.40 1014.48 1014.56 1014.52 1014.48 1014.36 1014.28 1014.24 1014.32 1014.20 1014.08 1014.08 1014.00 1013.76 1013.56 1013.36 1013.20 1012.88 1012.48 1012.24 1012.00 1011.80 1011.60 1011.24 1010.88 1010.52 1009.92 1009.76 1009.64 1009.48 1008.96 1008.56 1008.24 1008.00 1007.72 1007.20 1006.84 1006.60 1006.32 1006.08 1005.72 1005.64 1005.32 1004.12 1003.32 1002.52 1001.92
1011.24 1011.48 1011.88 1012.32 1012.56 1012.68 1012.76 1012.76 1012.88 1013.04 1013.12 1013.16 1013.20 1013.24 1013.36 1013.44 1013.56 1013.68 1013.76 1013.72 1013.88 1014.00 1014.12 1014.20 1014.24 1014.28 1014.28 1014.36 1014.40 1014.40 1014.36 1014.36 1014.32 1014.28 1014.12 1014.00 1013.96 1013.92 1013.96 1013.84 1013.72 1013.48 1013.32 1013.12 1012.84 1012.52 1012.36 1012.20 1012.04 1012.00 1011.80 1011.40 1011.12 1010.56 1009.56 1008.80 1008.88 1008.80 1008.56 1007.92 1007.52 1007.32 1006.88 1006.56 1006.24 1005.92 1005.64 1005.32 1005.08 1005.08 1004.32 1003.00 1001.88 1001.20
1011.20 1011.48 1011.76 1012.04 1012.20 1012.36 1012.40 1012.48 1012.52 1012.64 1012.72 1012.76 1012.88 1012.92 1013.00 1013.12 1013.32 1013.44 1013.60 1013.76 1013.84 1013.92 1014.00 1014.08 1014.20 1014.28 1014.36 1014.36 1014.40 1014.36 1014.36 1014.40 1014.28 1014.16 1013.96 1013.92 1014.04 1014.04 1013.80 1013.60 1013.52 1013.40 1013.24 1012.96 1012.80 1012.60 1012.48 1012.28 1012.04 1012.00 1011.80 1011.48 1011.24 1010.84 1009.96 1009.00 1008.32 1008.00 1008.08 1007.72 1007.12 1006.84 1006.68 1006.28 1006.00 1005.72 1005.32 1005.24 1004.60 1004.40 1003.88 1002.80 1001.56 1000.80
1011.08 1011.36 1011.68 1011.76 1011.88 1012.04 1012.12 1012.24 1012.36 1012.52 1012.68 1012.76 1012.76 1012.92 1013.12 1013.28 1013.40 1013.52 1013.60 1013.64 1013.76 1013.92 1014.04 1014.08 1014.12 1014.20 1014.24 1014.32 1014.28 1014.24 1014.24 1014.40 1014.36 1014.00 1013.92 1013.96 1013.80 1013.64 1013.64 1013.72 1013.56 1013.40 1013.20 1013.00 1012.80 1012.56 1012.36 1012.28 1012.00 1011.68 1011.64 1011.56 1011.32 1010.76 1010.04 1008.88 1008.68 1007.80 1007.48 1007.64 1007.32 1006.76 1006.48 1006.32 1006.04 1005.72 1005.04 1004.64 1004.56 1003.56 1003.08 1002.36 1001.32 1000.56
1010.88 1011.16 1011.32 1011.60 1011.88 1011.92 1012.08 1012.24 1012.36 1012.60 1012.72 1012.72 1012.76 1012.88 1013.16 1013.32 1013.44 1013.52 1013.56 1013.64 1013.72 1013.80 1013.92 1014.04 1014.08 1014.12 1014.20 1014.24 1014.28 1014.32 1014.24 1014.08 1013.96 1014.00 1013.92 1013.72 1013.68 1013.68 1013.60 1013.60 1013.52 1013.24 1013.20 1012.96 1012.72 1012.44 1012.16 1011.96 1011.64 1011.40 1011.32 1011.36 1011.04 1010.44 1009.92 1009.68 1008.96 1007.84 1007.32 1007.32 1007.24 1007.00 1006.56 1006.48 1006.12 1005.56 1005.16 1004.36 1003.48 1003.08 1002.52 1001.96 1000.88 1000.20
1010.68 1010.88 1011.12 1011.44 1011.72 1011.88 1012.04 1012.20 1012.36 1012.52 1012.64 1012.72 1012.80 1012.92 1013.04 1013.20 1013.32 1013.48 1013.64 1013.76 1013.84 1013.96 1014.00 1014.00 1014.00 1014.16 1014.16 1014.24 1014.24 1014.24 1014.08 1014.04 1014.12 1014.00 1013.80 1013.64 1013.60 1013.64 1013.60 1013.56 1013.48 1013.32 1013.20 1012.96 1012.64 1012.24 1011.96 1011.60 1011.28 1011.04 1010.84 1010.60 1010.24 1009.72 1009.44 1009.20 1008.64 1007.88 1007.40 1006.96 1006.88 1006.84 1006.56 1006.40 1006.16 1005.72 1004.96 1004.36 1003.68 1002.88 1001.84 1001.12 1000.44 999.64
1010.60 1010.84 1011.08 1011.28 1011.60 1011.76 1011.96 1012.16 1012.32 1012.48 1012.56 1012.68 1012.80 1012.96 1013.12 1013.24 1013.44 1013.60 1013.68 1013.80 1013.88 1013.92 1013.96 1013.96 1014.04 1013.96 1013.80 1013.92 1013.92 1013.84 1013.88 1013.88 1013.84 1013.68 1013.64 1013.68 1013.64 1013.64 1013.52 1013.48 1013.36 1013.16 1013.12 1012.80 1012.52 1012.16 1011.68 1011.20 1010.76 1010.44 1010.28 1010.04 1009.68 1009.40 1009.04 1008.68 1008.24 1007.56 1007.16 1006.64 1006.40 1006.44 1006.36 1006.28 1006.12 1005.76 1005.20 1004.32 1003.80 1003.16 1002.28 1001.40 1000.44 999.24
1010.40 1010.68 1011.04 1011.24 1011.44 1011.72 1011.88 1012.16 1012.40 1012.52 1012.64 1012.76 1012.80 1012.92 1013.08 1013.28 1013.40 1013.52 1013.60 1013.72 1013.80 1013.80 1013.88 1013.80 1013.84 1013.80 1013.88 1013.80 1013.80 1013.88 1013.76 1013.72 1013.72 1013.64 1013.68 1013.72 1013.72 1013.60 1013.48 1013.44 1013.32 1013.04 1012.96 1012.68 1012.28 1011.92 1011.36 1010.92 1010.64 1010.36 1010.08 1009.84 1009.52 1009.24 1009.12 1008.96 1008.48 1007.80 1007.20 1006.68 1006.20 1006.00 1005.92 1005.72 1005.48 1005.20 1004.84 1004.32 1003.72 1003.00 1002.04 1001.00 1000.48 999.72
1010.36 1010.60 1010.92 1011.20 1011.36 1011.60 1011.80 1012.00 1012.24 1012.32 1012.52 1012.68 1012.72 1012.88 1013.12 1013.32 1013.40 1013.48 1013.56 1013.60 1013.60 1013.64 1013.64 1013.64 1013.92 1013.96 1013.68 1013.76 1013.88 1013.84 1013.64 1013.56 1013.64 1013.64 1013.64 1013.64 1013.68 1013.60 1013.44 1013.32 1013.16 1012.96 1012.80 1012.56 1012.16 1011.76 1011.28 1010.84 1010.52 1010.32 1010.04 1009.84 1009.44 1009.24 1009.12 1008.72 1008.36 1007.88 1007.32 1006.80 1006.24 1005.76 1005.44 1005.24 1005.00 1004.60 1004.20 1003.80 1003.56 1003.20 1002.72 1002.00 1001.08 999.64
1010.28 1010.52 1010.84 1011.08 1011.28 1011.48 1011.68 1011.88 1012.12 1012.28 1012.32 1012.48 1012.68 1012.88 1013.00 1013.16 1013.24 1013.32 1013.40 1013.44 1013.44 1013.44 1013.48 1013.52 1013.64 1013.68 1013.76 1013.84 1013.84 1013.68 1013.64 1013.68 1013.68 1013.64 1013.60 1013.64 1013.56 1013.56 1013.44 1013.24 1013.00 1012.80 1012.60 1012.40 1012.08 1011.56 1011.12 1010.80 1010.48 1010.36 1010.20 1009.76 1009.44 1009.20 1009.00 1008.68 1008.32 1007.80 1007.32 1006.84 1006.32 1005.96 1005.56 1004.96 1004.44 1004.04 1003.64 1003.36 1002.96 1002.56 1001.96 1001.44 1000.96 1000.28
1010.16 1010.36 1010.64 1010.92 1011.16 1011.40 1011.64 1011.80 1011.96 1012.20 1012.36 1012.52 1012.64 1012.76 1012.92 1013.04 1013.20 1013.48 1013.68 1013.56 1013.44 1013.44 1013.40 1013.48 1013.60 1013.88 1014.00 1013.92 1013.64 1013.56 1013.72 1013.72 1013.64 1013.64 1013.68 1013.60 1013.52 1013.40 1013.28 1013.12 1012.92 1012.72 1012.44 1012.24 1012.16 1011.60 1011.16 1010.92 1010.56 1010.24 1009.96 1009.60 1009.36 1009.24 1009.04 1008.76 1008.32 1007.80 1007.36 1006.96 1006.56 1006.20 1005.84 1005.24 1004.48 1003.64 1003.12 1002.68 1002.36 1002.04 1001.48 1000.84 1000.12 999.44
Wind_Speed
6 5 5 6 5 4 3 3 3 4 4 5 5 6 6 6 3 2 2 2 3 1 1 1 2 3 2 3 1 2 4 6 7 5 6 6 6 8 12 13 14 14 14 14 14 14 15 15 16 16 16 16 15 14 14 14 13 13 13 13 12 12 12 10 10 10 10 11 10 11 11 11 11 11
6 5 4 5 5 4 4 5 4 4 5 5 5 4 4 6 6 4 4 4 3 2 2 1 1 1 2 1 2 1 3 6 5 4 4 5 5 10 12 12 13 14 14 14 14 14 14 15 15 15 15 15 15 15 15 15 15 15 13 13 14 14 12 11 12 13 12 12 12 12 12 12 12 12
6 6 5 5 6 5 5 4 4 4 5 5 5 4 5 5 5 6 3 1 3 2 2 2 2 2 2 2 2 2 3 5 6 5 5 5 9 11 9 13 13 14 14 13 13 13 14 14 14 14 14 14 15 15 15 15 15 15 14 14 14 14 13 12 12 13 14 14 13 13 13 13 13 13
7 6 6 6 6 5 4 4 4 5 4 5 5 5 5 4 4 5 4 4 6 3 3 3 4 3 3 3 2 3 3 4 6 4 5 6 7 6 6 9 12 13 14 14 14 14 14 14 15 15 14 14 15 15 14 14 14 14 14 14 14 15 14 13 12 12 13 14 14 13 13 14 14 14
7 7 7 6 5 4 5 5 4 4 5 4 5 5 5 5 3 5 4 4 6 4 3 3 3 2 1 2 2 3 4 5 4 3 4 4 4 5 5 6 10 14 14 15 15 15 15 15 16 16 15 15 15 15 15 15 15 14 14 14 14 15 15 15 14 13 12 13 14 14 14 14 14 14
7 6 7 6 5 3 4 4 4 4 4 4 4 3 5 5 5 4 5 5 4 7 2 2 2 2 1 3 2 4 5 6 5 6 6 5 4 5 5 5 6 11 13 13 14 15 15 15 15 15 15 15 15 15 15 15 15 15 15 15 14 14 15 15 16 14 15 15 14 15 14 15 16 14
6 6 6 6 5 3 3 4 5 4 4 4 5 4 3 4 5 5 5 4 5 6 6 3 3 3 1 3 5 4 4 4 4 6 8 7 6 4 5 5 5 8 11 11 11 11 11 11 12 12 12 12 13 13 14 14 14 14 14 14 15 15 15 15 16 16 17 17 15 15 16 17 16 16
7 7 6 6 5 4 4 4 4 4 4 4 4 4 4 4 5 4 4 5 6 5 6 3 5 3 4 4 4 4 4 5 6 6 7 6 7 7 6 5 4 6 9 11 12 12 12 12 12 10 10 11 11 11 12 12 13 14 14 15 15 16 16 16 16 17 17 17 18 17 17 17 17 17
7 7 8 6 5 5 5 4 5 4 4 3 3 4 4 5 5 4 5 6 5 5 6 5 3 3 3 3 3 3 4 5 4 4 5 7 7 7 7 5 5 7 10 10 11 11 12 12 11 11 12 11 10 10 11 13 14 14 15 16 16 17 17 17 17 17 17 17 17 17 17 17 17 17
7 7 7 6 6 6 7 6 5 4 5 4 5 5 5 6 5 6 5 5 5 5 6 6 5 2 4 3 3 3 3 5 6 6 6 5 6 6 8 7 5 3 3 3 4 6 7 8 10 10 10 11 12 12 13 12 11 13 14 16 16 16 16 16 16 16 16 17 17 17 17 16 16 16
8 7 6 6 6 7 7 7 7 6 6 6 7 7 7 6 6 6 6 5 6 6 6 5 5 5 3 4 5 4 4 5 5 6 7 6 5 4 5 7 6 4 6 6 8 7 8 8 7 9 10 10 11 12 13 13 14 14 12 13 14 15 15 15 15 16 17 17 18 17 16 16 17 18
8 8 7 7 7 7 8 8 8 7 7 6 7 7 6 7 6 6 6 6 6 6 6 7 6 4 4 2 3 1 0 2 3 4 6 7 6 5 3 4 5 3 3 6 6 7 7 7 7 6 6 8 10 11 11 11 13 14 14 14 12 11 12 14 15 16 16 16 16 16 17 17 18 18
8 8 8 8 7 8 10 12 10 9 9 7 7 7 6 6 6 6 6 7 6 6 6 6 4 3 5 5 4 4 3 4 6 3 2 4 5 4 4 5 5 5 5 4 4 5 4 5 6 5 6 7 8 8 10 9 12 13 13 13 13 13 13 13 13 13 14 15 15 16 16 16 17 17
8 9 8 8 12 14 16 14 14 14 14 13 10 8 7 7 6 7 6 6 6 6 6 7 6 6 7 6 4 4 4 4 2 3 3 3 4 3 5 6 4 4 4 3 5 6 4 2 3 4 6 6 6 7 7 8 10 12 14 13 13 13 14 15 16 16 15 14 14 15 15 16 17 17
9 8 8 7 11 13 13 13 16 15 15 15 15 13 11 9 8 7 7 7 6 7 7 6 4 5 6 6 4 4 5 3 4 5 3 5 3 3 5 8 7 1 5 3 2 5 4 1 4 6 6 7 6 6 8 12 14 15 14 15 15 15 15 15 15 15 15 15 15 15 15 15 16 17
9 9 9 8 7 9 10 8 8 11 14 13 12 10 10 10 11 11 9 8 5 6 7 5 5 4 6 5 4 4 3 6 5 5 4 3 4 5 5 4 5 4 0 2 4 7 6 3 4 6 6 7 6 8 11 14 14 14 14 15 15 15 15 15 15 15 15 15 15 16 16 15 16 16
10 9 9 8 7 7 12 9 7 6 5 7 9 10 11 11 12 14 15 11 7 6 5 5 5 6 4 5 6 4 3 3 5 4 3 3 4 5 6 6 5 8 1 2 3 6 7 3 4 6 7 7 6 8 10 12 12 13 13 13 14 14 14 14 14 14 15 15 15 15 15 15 15 15
9 9 8 8 8 5 6 7 7 6 6 5 4 4 4 5 8 10 10 10 5 8 4 3 6 6 4 7 5 6 3 3 5 4 6 4 4 5 7 6 6 6 3 4 2 4 8 6 5 6 7 5 5 6 9 12 12 12 12 13 13 13 13 14 14 15 15 15 15 15 15 15 16 17
8 7 8 8 9 7 7 7 7 6 5 3 4 4 4 4 5 6 6 3 7 2 6 6 7 8 7 7 7 6 3 5 5 5 5 5 5 4 3 4 5 7 5 3 2 5 6 4 3 5 6 4 5 6 7 10 11 12 13 13 13 13 14 15 15 15 15 15 15 15 15 15 16 16
7 8 8 8 8 8 7 8 11 7 4 3 4 1 1 4 6 6 2 13 9 7 9 8 8 8 8 8 6 5 5 4 4 4 1 1 2 3 5 7 5 5 2 4 4 3 4 3 3 3 3 4 6 7 6 8 11 13 14 13 13 14 15 15 15 15 15 15 15 15 15 16 17 17
7 8 8 8 8 7 7 9 10 9 7 3 4 4 6 8 6 7 2 12 12 13 13 13 14 13 11 9 9 9 10 6 2 1 1 5 3 4 6 6 4 6 3 1 4 3 4 2 1 5 4 4 6 6 6 6 10 14 14 14 15 15 16 16 17 17 16 16 16 16 17 17 17 19
7 8 14 10 8 8 7 10 11 11 8 7 7 6 7 8 8 7 2 4 6 10 12 12 6 4 4 5 5 6 6 7 2 4 6 4 2 5 4 6 5 6 5 3 2 1 4 3 2 5 4 4 4 5 6 7 8 11 10 12 14 16 16 16 17 16 16 17 17 17 18 18 18 13
7 7 10 13 9 8 9 12 12 12 10 7 7 8 7 8 8 7 3 1 1 1 2 1 1 1 1 2 3 3 7 6 5 5 6 4 2 4 5 5 5 5 4 2 1 4 4 4 3 2 5 5 5 5 6 7 6 7 7 7 9 14 15 16 16 16 17 17 18 18 19 19 17 10
5 6 6 8 12 13 12 12 13 12 13 9 8 6 7 7 9 3 2 2 1 0 1 2 2 3 3 3 3 3 3 4 2 2 4 3 2 2 4 4 4 5 3 3 2 3 3 3 5 2 4 6 6 4 4 5 6 7 7 8 7 12 14 13 12 15 16 16 18 18 19 19 16 9
7 7 6 5 8 12 12 14 13 12 11 12 7 3 3 4 3 6 4 2 1 0 1 2 3 4 3 3 3 3 3 2 1 3 2 2 3 4 4 5 5 7 6 6 7 2 4 2 5 3 5 3 5 6 6 7 7 7 8 7 8 9 8 8 7 9 12 16 17 18 19 18 18 13
6 7 6 6 8 11 12 13 11 11 11 6 9 4 9 4 6 1 2 1 1 0 1 3 4 4 3 4 4 3 3 2 1 1 1 2 3 5 6 6 6 5 6 7 6 4 3 3 6 6 5 5 7 6 8 7 9 9 7 7 7 9 8 8 8 9 9 9 10 11 13 16 16 17
7 6 6 6 8 10 10 10 11 7 11 13 12 10 6 7 6 3 2 1 1 2 2 2 4 4 3 4 5 4 4 3 3 2 3 3 3 4 4 5 6 7 8 7 5 5 5 5 3 5 7 6 8 7 7 7 7 7 8 8 7 7 6 6 8 10 10 10 10 15 15 15 17 19
6 6 5 5 7 8 9 9 7 10 10 9 11 8 7 7 5 2 1 0 0 1 1 3 4 5 4 3 4 4 5 3 3 4 4 4 4 4 5 5 5 5 6 7 7 7 5 6 6 6 6 6 8 8 10 8 9 8 10 9 7 7 7 6 8 10 10 10 10 9 8 9 10 11
4 5 7 7 9 8 7 6 7 9 10 8 7 7 8 7 3 2 1 1 1 2 4 5 5 5 5 4 3 4 3 2 2 3 4 3 4 4 4 5 5 5 5 5 6 6 5 5 7 7 6 5 6 7 7 10 9 10 9 9 9 8 8 8 9 10 10 10 10 10 10 10 11 10
7 8 9 10 9 8 8 6 4 4 5 6 7 6 6 2 3 3 3 2 3 5 5 3 5 5 3 3 4 3 1 2 5 4 3 4 6 6 6 6 7 6 5 6 6 6 5 5 6 7 6 7 7 8 8 9 9 9 8 9 10 10 8 8 8 8 9 11 11 11 11 10 11 12
6 6 6 6 6 6 7 4 3 3 5 4 3 3 4 3 3 4 5 5 5 4 4 4 4 3 3 3 3 3 3 4 5 3 3 5 6 6 4 3 6 7 7 5 5 5 6 6 7 5 6 7 7 8 9 8 9 9 9 8 8 9 9 8 9 9 9 11 11 11 11 11 11 13
6 6 7 8 5 5 4 3 3 1 2 2 3 4 3 4 4 4 5 4 3 3 1 2 2 3 3 4 6 3 3 4 6 4 2 3 5 5 3 3 6 6 7 7 6 5 6 6 6 6 6 7 8 9 8 7 9 9 10 9 9 9 9 9 10 9 9 10 12 13 12 11 12 13
6 6 6 5 5 4 5 3 2 2 3 3 3 3 3 3 3 3 2 3 3 2 1 4 5 6 4 6 3 2 3 5 5 3 3 5 3 4 2 4 6 6 7 9 8 7 5 6 5 5 6 7 7 8 7 8 8 8 9 10 9 10 10 9 9 10 9 10 12 14 14 13 12 14
7 6 6 5 5 5 5 5 4 5 5 4 4 4 4 3 4 3 3 4 4 3 4 5 5 6 5 6 4 3 4 5 5 5 3 4 2 2 4 6 6 6 5 7 7 8 8 7 7 7 6 6 5 6 7 7 9 10 10 10 9 11 11 9 9 9 10 10 11 15 15 15 14 13
7 6 6 5 4 5 5 4 5 5 5 5 5 5 3 5 5 4 5 5 4 5 5 6 6 6 6 5 3 3 3 3 5 6 3 2 3 3 4 5 6 6 6 7 8 7 7 8 8 8 8 7 8 6 6 8 9 11 10 10 9 10 10 9 9 10 10 11 9 13 16 16 16 13
6 6 6 5 5 4 5 5 5 5 5 4 4 4 4 5 4 5 6 5 5 5 5 5 4 2 2 3 2 3 3 3 4 4 4 4 5 5 4 4 4 6 6 6 7 7 6 7 7 7 8 8 7 9 10 7 7 7 10 11 9 9 9 10 10 10 10 11 10 11 15 18 17 15
6 5 6 6 5 5 6 6 6 5 4 3 3 4 5 3 3 4 2 3 3 2 3 2 1 1 1 2 2 3 2 2 4 3 3 3 3 3 4 5 5 6 6 7 6 7 5 6 6 6 7 8 8 10 10 7 13 13 6 10 11 9 10 10 10 11 11 11 14 12 14 16 17 16
7 6 6 5 4 4 3 4 5 6 5 3 4 4 5 5 5 4 3 5 4 4 4 5 3 2 3 2 3 3 3 3 2 1 2 2 3 5 4 6 6 6 7 7 6 7 6 6 6 7 6 7 9 10 11 9 7 11 8 6 10 11 10 10 11 12 14 12 12 14 13 15 17 15
7 7 6 5 6 6 6 6 6 6 5 5 5 5 6 5 5 5 5 4 3 3 2 1 2 2 3 3 2 2 3 2 2 3 3 3 3 4 6 6 6 7 6 7 7 7 6 6 7 7 6 6 8 9 10 9 10 12 10 9 8 9 9 9 12 12 13 14 14 13 13 13 18 22
6 6 6 7 6 6 6 6 6 6 6 6 6 6 6 6 5 4 3 3 3 3 4 4 3 3 3 3 2 1 1 0 1 1 2 3 4 4 5 5 5 6 6 7 7 8 7 8 8 7 7 8 9 9 9 10 9 9 9 9 11 9 8 8 11 12 14 13 14 15 17 15 15 11
6 7 7 7 7 6 7 6 6 6 6 6 5 5 5 5 6 5 5 3 3 3 3 4 3 4 2 0 0 1 1 0 1 2 3 4 4 4 6 5 6 6 6 7 7 8 8 8 11 16 12 8 8 6 5 7 10 10 10 10 7 8 10 8 9 10 12 13 13 14 15 15 16 15
7 7 6 7 7 6 6 7 6 6 5 5 6 6 5 4 3 4 3 2 1 2 2 2 2 2 0 1 1 2 1 1 1 3 3 4 5 5 6 5 6 7 6 7 8 8 9 9 9 8 7 7 6 5 7 9 10 10 10 9 9 8 10 12 14 13 12 11 12 14 14 14 11 12
6 7 7 6 7 6 6 6 6 6 6 6 6 5 5 5 4 4 3 2 1 1 1 3 1 1 2 1 1 1 2 2 2 3 4 4 4 5 6 6 6 6 6 7 8 8 8 8 7 8 8 6 4 3 7 9 9 9 9 9 10 10 10 12 13 15 15 16 15 13 12 13 13 15
7 7 7 7 7 7 6 6 6 6 7 6 6 6 7 7 5 3 3 3 3 3 3 4 3 3 1 0 0 1 3 2 2 3 4 4 4 4 5 6 6 6 7 6 7 8 8 8 8 7 7 7 5 5 8 9 9 9 9 9 9 11 12 12 10 10 10 11 14 17 21 21 18 19
7 7 7 7 6 6 6 6 6 5 6 6 6 6 5 4 3 2 1 2 4 4 5 6 4 1 0 0 3 4 3 2 3 3 3 4 5 5 5 6 6 7 7 7 6 8 8 8 8 6 5 6 5 5 7 7 9 8 9 10 12 11 11 11 13 15 14 13 13 20 22 23 23 23
Wind_Direction
207 202 199 196 198 214 190 150 159 160 146 150 158 158 162 163 154 224 256 268 203 280 248 126 297 26 343 282 262 233 224 223 214 214 210 217 221 226 225 228 228 229 232 233 233 235 239 241 242 244 245 246 246 247 250 252 256 261 267 269 268 265 265 262 262 260 259 256 252 256 261 263 266 270
205 206 201 198 195 204 178 178 175 168 164 155 162 166 151 151 171 181 193 260 216 238 301 188 230 327 334 297 287 235 255 267 260 250 239 236 236 235 233 232 234 234 235 236 237 238 239 239 240 240 243 245 247 248 249 250 252 255 257 258 263 265 262 258 253 251 252 251 249 244 248 255 259 261
199 204 206 200 202 191 195 195 183 181 164 169 163 158 140 158 150 162 142 175 284 185 226 284 239 226 276 258 273 287 264 259 259 255 248 244 243 242 240 238 237 239 241 242 242 242 243 243 241 241 240 240 243 245 244 246 250 254 258 259 263 263 259 257 255 253 251 251 249 246 243 244 249 253
196 196 203 205 204 199 193 206 196 191 191 171 167 165 164 167 159 149 151 184 251 242 208 243 279 254 264 274 252 265 254 247 250 254 255 250 255 259 256 256 247 242 242 244 247 248 245 242 242 242 240 240 244 246 247 248 249 251 253 257 261 263 264 262 257 249 247 248 252 257 254 246 243 245
194 198 200 207 210 188 189 203 201 193 193 175 177 170 161 169 160 153 164 195 257 289 241 235 248 281 303 308 238 291 294 306 297 271 246 249 246 244 239 240 244 243 244 245 246 247 243 240 240 239 238 241 244 247 250 253 254 253 253 254 256 258 261 264 262 259 249 243 244 246 251 252 250 249
204 196 200 210 210 187 193 193 196 189 175 177 181 185 174 183 182 190 163 204 211 257 309 301 294 280 224 254 311 294 299 300 303 303 299 289 265 263 264 254 249 242 237 234 231 231 233 234 232 229 229 233 236 240 245 248 249 250 253 256 255 254 255 257 259 259 258 257 251 246 241 248 255 253
199 195 201 209 201 175 190 200 201 185 181 179 181 197 189 194 205 192 192 175 218 241 263 246 269 259 266 208 261 274 259 263 278 293 291 285 285 263 247 252 259 257 263 266 266 263 260 249 235 236 243 243 240 241 244 245 246 250 253 255 257 257 255 253 254 255 257 259 254 248 247 249 251 253
194 200 200 211 199 185 194 206 206 201 195 187 191 194 201 201 212 208 194 205 206 224 241 278 218 239 218 258 249 256 272 278 284 273 280 287 283 283 283 274 268 265 268 275 281 283 281 280 276 259 237 232 244 254 253 249 250 253 253 253 254 255 255 255 256 255 255 255 257 255 252 252 252 253
194 198 204 201 194 188 198 209 206 199 198 204 196 209 213 209 217 210 200 209 209 215 229 254 257 249 248 247 265 250 270 281 275 282 275 275 281 291 288 290 277 279 281 278 277 279 281 283 286 289 291 288 275 252 236 238 245 247 246 247 248 250 252 255 257 259 260 260 260 258 257 255 254 255
194 200 202 197 193 190 196 207 207 201 205 203 212 221 222 219 215 216 219 211 209 214 234 233 264 265 235 270 256 246 229 258 279 287 283 291 286 286 294 286 284 287 284 283 278 279 280 282 283 285 288 291 291 291 289 278 253 235 236 241 244 247 250 252 255 259 262 263 264 263 261 260 258 256
198 197 196 198 195 196 197 200 205 204 208 208 219 219 220 221 217 222 226 224 226 226 239 247 231 248 251 216 257 261 220 240 241 260 286 288 273 262 257 285 293 297 299 298 300 294 287 289 291 290 290 284 278 277 277 277 280 280 263 243 238 241 243 245 248 251 254 257 260 262 263 261 257 254
200 197 197 199 198 196 197 199 202 196 204 210 225 223 220 220 217 223 225 224 225 232 236 238 247 232 244 255 247 288 25 272 283 234 228 257 274 276 265 236 265 288 291 294 298 303 309 308 300 296 285 278 279 281 282 282 281 280 281 282 272 254 242 240 243 247 249 251 254 256 257 257 259 259
200 200 204 204 201 202 200 198 199 200 200 200 215 224 210 215 214 223 222 217 214 225 225 247 242 256 263 257 263 287 267 242 246 245 186 240 243 252 276 274 248 242 257 260 260 280 268 286 301 314 319 307 305 300 291 283 280 278 277 277 276 277 276 270 262 255 253 255 255 255 256 259 260 261
203 205 203 204 204 208 211 206 207 209 211 209 205 209 194 203 208 219 218 214 210 208 220 234 235 244 255 259 236 237 243 247 281 300 265 259 278 314 296 285 241 225 202 246 268 266 264 231 294 300 285 286 288 285 287 278 275 278 279 278 276 275 276 276 278 279 276 268 259 255 253 254 256 258
204 208 207 205 209 212 216 215 211 215 217 219 216 212 203 198 199 209 216 221 203 205 221 232 223 234 262 267 238 228 251 248 242 247 226 247 285 294 308 304 308 219 195 212 260 289 278 292 288 280 275 276 278 273 271 271 276 278 278 278 278 278 278 280 281 280 278 276 273 268 262 256 253 253
202 204 204 205 207 211 213 206 210 217 222 224 227 229 229 225 217 213 206 214 211 209 217 227 235 236 244 262 241 241 225 249 250 239 226 236 254 274 275 263 265 254 101 337 298 286 289 292 258 270 271 272 269 272 273 278 282 284 285 285 285 285 284 282 281 278 273 270 269 267 264 259 255 254
201 201 201 206 211 217 206 195 194 191 209 229 238 248 253 251 234 228 229 223 212 182 180 203 248 232 226 242 252 217 216 207 232 229 237 249 251 245 257 258 266 281 323 7 290 282 286 281 273 272 272 269 273 281 289 295 294 289 287 286 284 282 280 278 276 273 270 268 264 261 261 263 263 261
203 200 198 203 214 206 193 192 190 191 208 227 250 260 253 236 231 223 220 218 120 63 48 257 248 252 197 238 246 247 209 191 229 219 247 253 260 251 242 249 257 273 323 272 283 292 285 277 267 267 270 270 278 277 278 282 282 284 282 280 278 278 278 277 274 273 272 272 272 271 270 267 264 263
194 192 198 204 209 203 204 203 199 196 203 208 237 249 245 225 232 231 220 112 89 112 243 242 245 252 246 244 251 260 236 220 229 213 232 241 236 255 289 309 266 275 263 224 163 247 266 280 275 262 269 277 277 270 274 271 272 274 275 272 274 274 273 272 272 273 273 272 270 268 266 265 266 266
190 190 194 201 204 204 205 210 207 202 176 188 222 225 346 275 259 250 208 124 149 191 217 223 231 242 243 241 248 250 236 234 241 249 297 9 313 310 300 283 296 284 252 167 179 241 260 262 253 269 268 283 281 277 276 276 271 267 263 265 266 269 272 274 276 276 275 272 268 265 267 271 274 276
189 192 195 199 201 195 200 204 201 208 179 147 144 166 217 239 239 245 201 144 169 213 229 242 243 242 253 266 265 261 260 250 235 121 334 280 261 274 283 284 295 283 308 247 204 207 270 273 254 285 271 261 268 274 274 269 262 261 266 270 273 273 273 273 274 276 276 275 274 274 276 276 276 275
189 192 193 190 190 188 196 199 195 199 177 169 191 208 216 228 236 247 221 175 165 183 184 192 207 247 258 253 269 268 260 247 191 176 226 239 217 265 254 272 272 290 294 260 167 350 254 269 261 280 264 269 251 252 254 261 267 270 272 269 269 271 271 271 273 273 273 273 275 277 278 278 278 279
187 196 198 188 182 190 202 202 203 199 185 195 205 212 216 228 238 237 186 169 321 339 21 23 16 325 299 251 241 257 259 261 212 198 230 260 260 263 282 283 310 318 293 252 143 328 284 319 266 274 311 292 257 244 245 258 273 278 277 274 276 271 270 272 272 271 272 273 274 275 275 274 274 273
190 193 202 198 190 199 212 216 211 206 189 195 209 201 208 215 229 186 121 165 160 65 34 300 320 299 303 314 314 310 304 288 289 218 204 203 182 221 265 267 253 252 252 262 303 296 261 244 275 232 240 282 302 294 285 275 268 277 277 279 277 279 279 277 275 272 269 270 270 269 269 267 265 267
178 187 195 204 206 210 220 226 222 215 201 203 201 190 230 241 183 137 151 190 123 66 341 334 323 315 320 320 317 305 313 336 29 68 88 153 169 186 218 244 251 248 257 267 280 271 262 256 282 285 275 218 249 292 286 294 283 275 273 269 274 278 278 276 274 277 277 272 268 264 262 260 258 251
185 192 197 204 209 210 220 229 230 219 210 125 61 216 213 174 106 111 160 111 82 69 1 330 317 308 318 312 309 307 308 298 148 147 191 213 211 212 209 218 236 252 264 261 241 213 239 279 250 268 273 283 281 274 294 288 285 286 280 266 256 263 268 278 281 280 277 274 274 265 259 255 253 254
194 191 199 213 218 219 224 227 225 212 118 128 200 194 156 152 163 148 93 119 60 5 307 292 290 294 289 300 303 312 306 264 239 250 252 249 234 241 240 230 214 228 255 275 266 239 207 243 247 252 271 271 285 292 284 288 288 289 285 273 266 261 258 265 274 279 278 274 270 264 262 261 261 261
188 188 200 206 197 199 206 206 203 114 140 176 192 161 155 143 157 146 98 71 230 271 289 279 276 281 274 269 284 274 260 241 248 268 274 274 268 273 286 283 272 249 257 259 268 271 247 246 271 263 248 262 277 284 288 280 280 283 287 287 277 274 278 278 281 282 279 276 274 271 272 273 267 270
179 178 169 163 169 176 172 134 123 135 165 166 155 152 156 164 125 120 127 184 161 235 251 248 256 266 263 241 249 259 249 256 294 283 293 295 299 291 275 270 270 275 274 269 267 267 263 252 262 277 283 265 262 263 265 275 283 287 285 294 298 290 290 289 284 279 278 275 271 268 265 268 272 268
126 138 140 138 136 136 137 142 179 159 150 139 139 143 169 149 125 140 170 191 189 224 234 241 245 255 303 315 275 265 244 270 277 303 296 298 299 303 302 318 307 291 270 267 269 271 271 264 260 265 274 277 265 268 267 277 281 280 286 282 278 284 274 270 269 272 277 277 275 274 271 267 268 272
101 104 116 129 137 131 132 130 129 88 105 125 150 175 188 180 192 195 197 192 197 217 229 247 268 289 280 273 276 250 238 277 293 278 275 285 275 284 289 289 290 298 294 288 280 273 269 267 266 258 263 270 274 267 273 274 281 285 281 273 277 280 286 284 280 278 275 279 280 277 275 272 270 266
123 119 109 106 110 117 114 95 95 114 143 168 175 196 193 198 207 219 223 223 206 224 211 267 280 291 279 265 243 252 274 272 274 283 278 259 285 288 309 326 298 296 304 307 298 284 275 272 271 269 246 250 266 280 285 282 280 281 280 279 278 277 281 281 283 281 278 284 286 282 278 276 277 278
108 109 112 114 121 130 142 159 173 194 206 213 196 201 202 200 195 206 189 217 233 208 216 256 259 263 254 249 244 258 293 276 273 280 288 279 254 292 294 288 292 305 310 310 308 303 291 283 273 266 261 261 254 263 278 291 281 275 282 285 288 286 285 280 280 284 290 287 284 287 287 282 278 276
132 138 141 151 153 156 157 180 204 217 220 233 233 234 214 196 192 197 201 218 225 208 222 237 243 247 238 236 239 255 259 288 286 280 254 274 305 301 307 312 302 297 292 293 301 302 311 309 315 314 310 297 271 248 249 262 280 288 285 286 287 285 283 285 284 285 285 278 285 290 287 288 282 274
143 147 152 165 187 169 169 190 210 216 212 225 231 243 206 200 202 203 204 219 210 216 224 235 234 228 201 214 229 233 247 253 272 297 298 279 297 305 309 311 301 303 305 307 307 306 315 316 325 325 323 323 324 306 238 234 271 278 284 284 279 281 287 289 293 292 290 290 287 286 290 286 282 279
148 158 153 166 191 175 184 215 219 209 209 210 215 231 223 220 205 193 213 212 201 213 210 205 199 191 198 224 245 242 245 248 276 281 295 322 330 318 315 293 290 298 302 300 302 305 313 310 318 320 318 316 318 314 316 276 252 249 279 287 289 288 291 296 295 295 297 297 292 289 289 290 291 291
149 162 164 178 188 183 204 216 220 210 185 183 195 203 206 202 188 184 173 124 122 123 143 116 130 173 201 224 239 241 244 254 276 288 304 313 314 294 314 319 317 310 314 304 303 301 305 303 307 308 307 311 313 306 295 297 300 292 250 283 294 296 299 303 305 304 299 297 295 289 284 289 291 294
162 162 171 181 173 176 171 138 116 109 108 117 106 87 83 99 108 122 128 107 123 133 146 151 168 188 211 217 233 273 283 265 242 283 299 307 329 335 324 312 309 308 304 301 303 296 296 291 294 291 291 292 302 302 303 304 305 299 286 258 286 297 307 309 309 306 303 298 290 293 293 290 291 295
156 164 163 151 152 144 133 134 128 128 130 118 116 116 120 123 121 119 117 130 131 136 135 153 223 225 241 251 226 238 274 301 343 312 310 325 331 326 319 315 310 305 314 307 305 299 301 300 292 290 281 278 284 281 288 291 289 283 293 267 260 288 297 307 304 302 300 304 301 294 284 279 280 281
158 152 149 142 145 133 130 128 128 136 139 143 143 147 139 140 146 139 141 157 184 197 188 197 202 202 219 213 223 214 143 157 238 264 309 326 326 319 308 304 297 299 310 304 308 306 306 296 294 294 294 282 270 274 274 268 266 274 277 280 255 249 283 308 303 304 304 300 302 304 305 309 305 304
152 139 147 141 139 139 137 142 144 147 147 148 142 145 143 146 147 170 176 189 190 196 220 227 210 200 215 177 166 130 154 262 325 342 343 336 323 316 307 312 311 308 309 302 299 301 299 292 293 298 298 286 283 290 302 311 307 305 306 300 292 271 264 268 282 292 291 299 303 304 304 310 310 310
152 144 144 144 143 150 145 148 154 146 147 145 138 137 145 136 141 150 154 169 179 213 234 254 225 214 145 112 125 160 134 49 342 341 335 330 320 314 313 314 309 308 309 298 296 290 290 297 304 311 306 311 317 339 314 301 298 300 298 301 303 300 302 300 291 282 284 301 312 310 310 306 302 299
136 139 145 150 143 148 151 152 155 151 151 147 149 143 125 134 148 142 147 167 181 113 325 333 2 173 119 111 196 182 78 21 0 341 330 319 312 306 306 303 296 295 287 283 285 287 296 304 312 318 319 322 297 304 299 298 295 294 299 307 311 315 314 309 299 296 302 306 303 301 305 308 317 315
145 145 148 148 149 156 157 151 152 151 153 154 139 137 147 151 157 170 167 151 122 117 111 93 68 58 51 265 232 46 44 11 353 352 324 309 303 295 293 299 306 304 302 296 304 308 312 316 316 321 321 310 302 311 306 309 305 305 308 307 311 320 319 321 314 304 300 302 312 316 315 311 302 294
148 147 147 150 145 144 152 156 146 142 128 129 135 141 142 129 124 128 140 118 115 120 113 121 124 159 200 117 61 34 346 2 1 335 318 315 312 309 310 309 308 309 304 304 311 310 317 318 312 318 307 304 310 307 303 302 302 308 313 319 323 325 323 325 329 330 331 327 328 327 322 318 317 316